Location: Shandelee
(41.8790°N, 74.8713°W)
Time: 03:14:54
(UTC+00:00)

Helios 1A Rocket - Pass Details

Date: 29 October 2020
Orbit: 562 x 587 km, 98.3° (Epoch: 23 November)

Event Time Altitude Azimuth Distance (km) Brightness Sun altitude
Rises 23:35:47 0° 172° (S) 2,793 6.4 -18.9°
Reaches altitude 10° 23:37:57 10° 175° (S) 1,895 5.5 -19.3°
Maximum altitude 23:42:02 66° 258° (WSW) 635 3.3 -20.1°
Drops below altitude 10° 23:46:07 10° 341° (NNW) 1,896 5.8 -20.9°
Sets 23:48:17 0° 344° (NNW) 2,795 6.6 -21.3°
